This is the latest recevied weather packets stored in our database for station/object Ad4UU. If no packets are shown the sender has not sent any weather packets the latest 10 day(s).
| Time | Temp. | Humidity | Pressure | Rain* | Wind** | Luminosity | Snow |
|---|---|---|---|---|---|---|---|
| 1777623350 | 21.11° C | 96% | 1012.4 hPa | 0 mm | - | - | - |
| 1777622732 | 21.11° C | 96% | 1012.1 hPa | 0 mm | - | - | - |
| 1777618233 | 21.67° C | 96% | 1012.3 hPa | 0 mm | - | - | - |
| 1777617044 | 21.11° C | 95% | 1012.4 hPa | 0 mm | - | - | - |
| 1777616184 | 21.11° C | 95% | 1012.5 hPa | 0 mm | - | - | - |
| 1777614930 | 21.67° C | 94% | 1012.8 hPa | 0 mm | - | - | - |
| 1777613450 | 22.22° C | 94% | 1013 hPa | 0 mm | - | - | - |
| 1777611033 | 22.78° C | 93% | 1013.3 hPa | 0 mm | - | - | - |
| 1777609232 | 22.78° C | 92% | 1013.3 hPa | 0 mm | - | - | - |
| 1777606831 | 23.33° C | 90% | 1013.7 hPa | 0 mm | - | - | - |
| 1777605635 | 23.89° C | 89% | 1013.6 hPa | 0 mm | - | - | - |
| 1777603231 | 24.44° C | 89% | 1013.4 hPa | 0 mm | - | - | - |
| 1777600888 | 24.44° C | 88% | 1012.9 hPa | 0 mm | - | - | - |
| 1777594550 | 25° C | 83% | 1011.6 hPa | 0 mm | - | - | - |
| 1777593930 | 25° C | 82% | 1011.5 hPa | 0 mm | - | - | - |
| 1777593332 | 25.56° C | 81% | 1011.4 hPa | 0 mm | - | - | - |
| 1777593031 | 25.56° C | 80% | 1011.4 hPa | 0 mm | - | - | - |
| 1777592749 | 25.56° C | 80% | 1011.2 hPa | 0 mm | - | - | - |
| 1777592432 | 25.56° C | 79% | 1011.3 hPa | 0 mm | - | - | - |
| 1777592131 | 25.56° C | 78% | 1011.3 hPa | 0 mm | - | - | - |
| 1777588530 | 27.22° C | 73% | 1011.1 hPa | 0 mm | - | - | - |
| 1777587631 | 27.22° C | 73% | 1010.9 hPa | 0 mm | - | - | - |
| 1777587348 | 27.22° C | 72% | 1010.9 hPa | 0 mm | - | - | - |
| 1777587031 | 27.22° C | 71% | 1010.9 hPa | 0 mm | - | - | - |
| 1777584036 | 27.78° C | 71% | 1011.3 hPa | 0 mm | - | - | - |
* Rain latest hour (hover to see other rain measurements)
** Current wind speed in m/s (hover to see current wind gust speed)